Location: Unnamed
(47.6264°N, 122.3366°W)
Time: 16:23:43
(UTC-08:00)

XW-2D - Pass Details

Date: 29 November 2023
Orbit: 440 x 449 km, 97.5° (Epoch: 02 March)

Event Time Altitude Azimuth Distance (km) Brightness Sun altitude
Rises 05:54:25 0° 28° (NNE) 2,558 ? -16.2°
Reaches altitude 10° 05:57:04 10° 50° (NE) 1,672 ? -15.8°
Maximum altitude 05:59:28 17° 92° (E) 1,295 ? -15.4°
Drops below altitude 10° 06:01:52 10° 134° (SE) 1,659 ? -15.0°
Sets 06:04:29 0° 156° (SSE) 2,528 ? -14.6°
